Temperature
26 25 24 25 26 26 26 26 26 26 26 26 25 25 25 24 24 24 23 23 22 22 21 21 20 20 20 19 19 19 18 18 18 17 17 17 17 17 16 16 16 16 16 16
25 25 26 26 26 26 26 25 25 26 26 26 25 25 25 25 24 24 23 23 22 22 21 20 20 20 19 19 19 19 18 18 18 17 17 17 17 16 16 16 16 16 16 16
25 26 27 26 26 26 26 25 25 25 26 26 25 24 24 25 24 23 23 23 22 22 21 20 20 19 19 19 19 19 18 18 18 17 17 17 16 16 16 16 16 16 16 16
26 26 26 26 25 25 25 26 26 25 24 24 25 23 24 24 24 24 23 22 22 22 21 20 19 19 19 19 19 18 18 18 17 17 17 17 16 16 16 16 16 16 16 16
25 26 25 25 25 25 25 26 25 25 24 24 25 24 24 24 23 23 23 22 22 21 21 20 19 19 19 19 18 18 18 18 17 17 17 17 16 16 16 16 16 16 15 15
26 26 26 26 26 26 26 26 25 25 24 23 24 24 23 24 24 24 23 22 22 21 21 20 19 19 19 18 18 18 18 18 17 17 17 17 16 16 16 16 16 15 15 15
25 25 26 26 25 25 25 24 23 22 22 23 25 25 23 24 24 24 23 22 22 21 20 20 19 19 18 18 18 18 18 18 17 17 17 17 16 16 16 16 15 15 15 15
24 24 25 25 25 24 25 24 22 22 22 24 25 24 23 24 24 23 23 22 21 21 20 19 19 18 18 18 17 17 17 17 17 17 17 17 16 16 16 16 15 15 15 15
24 24 25 25 25 25 24 24 25 23 23 23 24 23 23 24 23 23 22 21 21 20 20 19 18 18 18 17 17 17 17 17 17 17 17 17 16 16 16 16 15 15 15 15
24 23 25 25 25 25 25 24 24 23 22 22 23 23 22 22 23 23 22 21 20 20 19 19 18 18 17 17 17 17 17 16 16 16 16 16 16 16 16 16 15 15 15 15
24 23 24 24 24 24 24 24 24 23 23 22 21 22 23 23 22 22 22 21 20 20 19 18 18 17 17 17 17 16 16 16 16 16 16 16 16 16 16 15 15 15 15 15
23 23 23 24 24 25 24 24 23 22 22 22 22 21 24 23 22 22 21 21 20 19 19 18 17 17 17 16 16 16 16 16 16 16 16 16 16 15 15 15 15 15 15 15
22 22 22 22 23 23 23 23 23 23 22 21 21 21 23 23 22 22 21 20 19 19 18 18 17 17 16 16 16 16 16 16 16 15 15 15 15 15 15 15 15 15 14 14
21 21 21 21 22 22 22 23 23 22 20 21 21 21 22 22 22 21 20 20 19 19 18 17 17 17 16 16 16 16 16 15 15 15 15 15 15 15 15 15 15 15 14 14
22 21 22 22 23 23 22 22 22 22 21 21 21 21 22 22 21 21 20 20 19 18 18 17 17 16 16 16 16 15 15 15 15 15 15 14 15 15 15 15 14 14 14 14
22 21 21 22 23 23 22 22 22 22 21 21 21 21 22 22 21 21 20 19 19 18 18 17 16 16 16 16 15 15 15 15 15 15 14 14 14 14 14 14 14 14 14 14
21 21 20 20 22 22 21 22 22 22 22 21 21 21 21 21 21 20 19 18 18 17 17 17 16 16 16 15 15 15 14 14 14 14 14 14 14 14 14 14 14 14 14 14
21 20 20 20 20 19 21 23 22 22 22 22 22 21 21 21 20 19 19 18 17 17 16 16 16 16 16 15 15 15 14 14 14 14 14 13 13 13 13 13 13 13 13 13
21 20 19 19 19 20 21 22 22 21 20 21 21 21 20 20 19 19 18 17 17 16 16 15 15 15 15 15 15 14 14 14 14 13 13 13 13 13 13 13 13 13 13 12
20 20 19 18 18 18 20 21 21 21 19 20 20 20 19 19 18 18 17 17 16 15 15 15 15 15 14 14 14 14 14 13 13 13 13 13 13 13 12 12 12 12 12 12
19 18 18 18 18 19 20 20 20 18 18 19 19 19 19 18 18 17 16 16 15 15 14 14 14 14 14 13 13 13 13 13 13 12 12 12 12 12 12 12 12 12 12 12
19 18 18 18 17 18 19 19 19 18 19 18 18 18 18 17 17 16 15 15 15 14 14 13 13 13 13 13 13 13 12 12 12 12 12 12 11 11 11 11 11 11 11 11
19 19 18 18 18 19 19 18 18 18 18 18 17 17 17 16 16 15 15 14 14 13 13 13 12 12 12 12 12 12 12 12 12 12 11 11 11 11 11 11 11 11 10 10
19 19 18 18 18 18 18 18 17 17 17 17 16 16 16 15 15 14 14 13 13 12 12 12 12 12 11 11 11 11 11 11 11 11 11 10 10 10 10 10 10 10 10 10
17 18 17 17 18 18 17 17 17 17 16 16 15 15 15 14 14 13 13 13 12 12 12 11 11 11 11 11 11 10 10 10 10 10 10 10 10 10 9 10 10 10 10 9
17 17 16 16 17 17 17 16 16 16 15 15 15 14 14 13 13 13 12 12 12 11 11 11 10 10 10 10 10 10 10 10 9 9 9 9 9 9 9 9 9 9 9 9
Wind_Speed
5 5 4 4 4 5 4 3 2 1 4 4 5 5 6 7 6 4 5 5 5 5 6 5 4 4 3 2 4 4 5 5 4 3 2 2 1 1 2 2 3 3 4 4
5 4 4 3 2 4 5 5 3 1 2 3 5 4 5 6 7 5 3 3 4 3 5 4 3 3 3 3 3 4 4 5 5 3 2 2 2 1 1 1 2 3 3 4
5 2 2 3 3 4 5 4 4 3 3 5 5 5 5 6 7 6 4 3 4 4 4 5 4 3 2 3 2 2 3 5 5 4 3 3 2 1 2 1 1 1 2 3
4 2 2 3 3 4 4 3 5 5 5 5 6 3 3 7 7 7 6 4 3 3 3 5 5 4 3 2 3 3 3 4 5 5 3 3 2 1 1 1 1 1 2 2
3 3 4 4 3 4 4 5 7 8 7 8 8 4 3 6 7 7 7 5 4 4 3 4 5 4 3 2 2 3 3 4 5 5 4 3 2 1 1 2 2 1 1 2
4 2 3 3 3 5 5 7 9 9 6 7 9 6 2 3 6 7 7 7 5 4 4 4 5 4 3 3 3 1 2 3 4 5 5 4 3 2 2 2 1 1 1 1
7 7 4 3 5 5 7 6 3 4 5 5 4 3 3 7 8 7 7 6 5 5 4 4 4 4 3 3 2 1 1 2 3 4 4 5 4 3 3 1 1 1 1 1
6 7 6 4 5 5 6 6 4 4 4 3 1 1 6 9 9 8 7 6 5 4 4 4 4 4 3 3 2 1 1 1 3 3 3 3 4 3 2 2 2 1 1 2
5 2 4 3 5 6 7 6 7 8 10 7 3 4 5 7 8 7 7 6 4 4 4 4 4 4 3 3 2 1 1 0 1 2 2 2 3 2 2 2 2 1 1 2
7 5 3 3 5 7 7 8 6 5 5 6 5 3 4 7 6 5 5 5 4 4 3 3 3 3 3 3 2 2 2 1 1 1 2 2 2 2 2 2 2 2 2 1
7 7 5 5 5 5 6 7 6 5 5 4 4 1 3 6 5 4 5 5 4 4 3 3 3 3 3 3 2 2 2 1 0 0 0 2 2 2 2 2 2 2 2 2
4 5 7 6 4 3 6 7 6 5 5 6 5 1 5 5 5 4 5 5 4 4 4 4 3 3 2 2 2 2 2 1 1 1 1 1 1 2 1 1 1 1 2 3
4 5 6 4 4 5 5 6 7 7 6 6 6 1 5 4 4 4 4 4 3 3 3 4 3 2 1 1 2 2 1 1 1 1 1 1 1 1 1 1 1 2 2 2
3 7 9 8 5 3 6 7 7 6 6 8 7 4 4 3 2 3 3 4 4 3 3 3 2 2 1 0 1 1 1 1 1 1 1 1 1 1 1 1 1 1 2 2
5 9 12 12 10 8 9 10 9 9 10 10 9 7 3 1 0 2 3 3 3 2 2 2 1 1 1 0 0 0 1 1 1 1 2 1 1 1 1 1 1 1 1 1
7 9 11 12 12 11 11 11 11 11 11 11 11 8 3 2 1 1 2 3 2 1 1 1 1 1 1 1 1 1 1 1 1 1 1 1 1 1 1 1 1 1 1 1
7 9 9 10 11 11 12 10 11 9 8 8 8 5 2 3 1 1 1 1 0 0 0 0 1 1 2 1 1 1 2 1 0 0 1 2 1 1 1 1 1 1 1 2
8 9 6 8 10 11 5 1 2 5 7 6 5 3 2 2 2 2 1 1 1 1 2 1 1 1 1 1 1 1 1 1 0 0 0 1 1 1 1 2 2 2 2 2
8 7 6 7 9 10 6 2 2 4 6 4 4 3 3 2 0 0 2 2 2 1 1 1 2 2 1 1 1 1 1 0 0 0 0 0 0 1 1 2 2 2 2 2
7 7 7 7 8 7 1 3 3 3 4 2 2 2 2 2 2 1 2 2 2 2 2 1 1 2 2 2 2 1 1 1 1 1 1 1 1 1 1 2 2 2 2 2
7 7 9 10 10 7 1 1 1 2 1 5 3 3 2 2 2 2 2 2 2 2 2 2 2 2 2 2 2 2 2 2 2 1 1 1 1 2 2 2 2 2 2 2
6 6 8 8 9 6 2 1 0 2 4 5 5 4 3 3 3 2 2 2 2 2 2 2 1 1 1 1 1 2 2 2 2 1 2 2 1 2 2 1 1 1 2 2
5 4 3 3 2 2 2 2 3 4 5 5 5 5 3 2 2 2 1 1 1 2 1 1 0 1 1 1 1 2 3 2 2 1 2 2 1 1 1 1 2 2 2 2
5 3 4 5 3 2 2 1 3 4 4 5 5 4 3 2 1 2 1 1 1 1 1 1 1 2 2 1 2 2 2 2 2 2 2 2 2 2 2 1 1 2 2 2
6 4 5 8 6 4 4 3 3 3 3 4 4 3 3 2 2 2 2 2 2 2 1 1 2 2 3 2 2 2 2 2 3 3 2 2 2 2 2 2 2 2 3 4
8 8 7 6 6 6 4 3 4 4 3 3 3 3 3 2 2 2 2 2 2 2 2 2 2 3 3 3 3 2 2 2 4 3 3 2 2 2 2 2 3 4 4 5
Wind_Direction
203 227 235 228 236 281 298 290 273 163 146 210 233 201 174 168 173 183 172 166 162 166 162 156 147 134 132 139 129 126 135 129 121 110 90 85 83 80 72 73 67 65 64 52
218 225 243 245 247 270 278 278 271 215 167 233 258 226 168 169 173 182 184 166 153 150 132 127 143 155 157 142 133 138 139 135 123 114 120 121 106 99 97 81 70 64 72 71
222 209 219 238 243 259 270 281 290 275 252 241 254 250 194 179 173 168 179 173 153 158 144 140 140 128 140 137 126 128 134 124 122 131 119 100 78 59 64 75 90 76 80 79
228 206 251 251 244 269 280 298 288 278 266 256 225 242 189 172 169 165 163 161 144 139 146 138 135 129 124 131 141 145 148 135 131 127 116 128 132 146 143 117 122 99 74 94
230 190 234 252 275 284 288 294 280 270 264 268 257 250 189 165 160 156 153 151 145 140 131 119 121 129 131 116 128 166 156 143 138 139 139 140 133 150 119 112 107 131 108 90
245 206 254 288 284 268 280 271 259 252 255 254 246 236 191 159 143 136 137 139 138 127 119 113 114 110 105 104 102 125 161 147 148 149 150 154 156 149 109 98 110 133 118 126
218 210 208 256 269 242 254 271 274 237 227 238 227 214 126 99 99 99 105 108 115 117 113 108 104 103 100 103 111 119 127 144 157 168 165 157 162 162 155 162 158 179 147 146
239 214 196 218 258 274 262 258 266 286 285 291 256 175 116 110 105 102 103 98 98 105 109 110 111 110 112 111 105 117 131 158 174 181 167 157 157 163 165 177 167 192 162 153
287 230 159 191 247 266 272 271 276 279 285 283 226 135 131 131 127 120 114 111 108 99 99 106 110 111 116 122 130 135 123 97 180 182 159 152 159 161 162 173 161 160 164 157
295 283 207 193 239 236 264 287 289 276 288 284 283 219 170 149 132 129 128 122 113 101 94 99 103 110 113 123 147 157 136 131 139 171 178 150 157 164 165 170 169 159 165 150
289 277 240 209 230 250 241 248 258 277 276 287 290 13 91 125 125 127 117 110 113 110 103 94 98 98 93 110 126 135 123 115 141 180 155 143 153 153 154 160 154 162 167 162
290 288 268 245 211 241 267 272 272 272 281 287 286 137 108 104 98 106 110 107 108 111 111 104 97 93 96 113 136 141 144 163 193 205 203 170 132 137 149 174 170 179 189 182
325 281 275 241 199 208 243 258 277 288 280 269 273 196 128 114 112 112 117 116 115 112 105 105 109 104 111 124 145 151 164 187 187 191 197 141 139 141 146 213 208 193 205 200
303 272 270 274 296 283 263 261 260 265 272 273 273 261 197 171 153 132 132 143 141 131 123 113 115 121 119 143 124 150 190 189 179 182 183 170 171 154 170 205 244 237 223 207
253 265 272 278 283 276 270 272 268 261 262 267 279 287 286 228 196 150 149 138 130 133 123 124 126 131 140 189 131 245 241 201 184 176 180 172 170 161 199 200 235 258 263 249
241 266 279 279 275 267 263 261 259 257 261 264 271 280 295 325 58 96 140 141 149 166 166 169 182 154 186 209 184 249 266 278 205 167 146 136 142 160 216 221 251 269 280 268
244 258 272 278 286 280 259 257 251 248 251 258 265 281 316 308 345 112 125 131 198 314 294 208 240 233 234 221 195 226 260 258 33 123 126 130 121 149 217 254 256 261 258 271
266 269 270 276 282 266 257 289 272 260 262 267 275 293 301 298 31 28 64 121 78 25 349 340 305 287 280 269 221 220 247 215 162 11 93 133 153 183 228 231 227 235 255 259
250 259 266 265 269 271 265 250 242 253 260 276 291 316 328 352 89 334 67 67 62 25 350 340 326 325 330 342 338 289 260 226 104 1 264 148 181 217 230 249 232 239 248 251
236 243 249 259 266 268 299 33 9 279 253 356 347 328 336 357 276 284 63 62 48 41 17 359 340 353 6 354 345 313 334 348 326 316 292 249 208 217 229 239 241 250 243 246
213 226 237 252 260 266 16 66 352 239 330 10 7 346 318 294 313 356 34 44 46 47 30 31 21 11 358 360 354 334 345 326 326 342 328 300 259 237 233 233 233 250 246 245
232 230 231 239 250 257 112 150 332 24 23 6 0 347 345 352 1 9 25 36 44 58 49 52 24 347 352 1 339 321 315 319 332 329 307 286 273 279 267 237 243 252 248 250
239 248 269 260 246 34 44 40 5 359 353 355 354 350 351 335 342 348 11 28 33 34 36 26 340 306 295 294 303 295 300 311 310 301 295 292 291 280 279 231 233 253 252 249
271 267 269 274 264 303 323 336 336 335 337 342 341 341 335 324 340 348 346 4 15 12 4 348 305 292 292 272 268 286 301 301 297 281 276 279 277 283 284 266 234 241 257 260
300 306 279 272 278 282 278 301 313 321 334 330 329 325 322 331 334 328 328 348 353 345 340 314 294 292 296 302 292 300 305 303 291 280 270 274 268 263 274 276 264 250 241 238
265 266 268 275 302 301 309 346 351 335 326 325 322 316 320 326 324 328 329 346 342 335 332 327 317 314 311 314 315 313 291 283 284 282 275 268 268 263 261 268 286 281 258 251
Height
1507 1510 1511 1508 1507 1507 1506 1509 1511 1508 1506 1510 1512 1513 1513 1515 1517 1519 1521 1523 1525 1526 1528 1530 1531 1532 1534 1535 1535 1536 1537 1538 1538 1539 1540 1540 1541 1541 1542 1542 1542 1542 1542 1543
1507 1510 1506 1504 1504 1506 1507 1511 1511 1507 1505 1508 1510 1510 1510 1512 1515 1517 1519 1521 1523 1525 1527 1528 1530 1531 1532 1534 1534 1535 1536 1537 1537 1538 1539 1540 1541 1541 1541 1542 1542 1542 1542 1542
1508 1506 1503 1504 1506 1508 1508 1511 1510 1510 1507 1507 1511 1514 1511 1510 1512 1515 1518 1520 1521 1524 1525 1527 1528 1530 1531 1532 1533 1534 1535 1536 1537 1538 1539 1539 1540 1541 1541 1541 1541 1541 1542 1542
1504 1503 1504 1505 1507 1509 1513 1507 1507 1509 1513 1516 1511 1524 1512 1508 1510 1512 1516 1518 1521 1523 1524 1525 1526 1528 1529 1530 1532 1533 1534 1535 1536 1537 1538 1538 1539 1539 1540 1540 1540 1541 1541 1542
1504 1503 1505 1508 1507 1507 1508 1505 1506 1508 1512 1515 1509 1517 1514 1505 1510 1511 1514 1517 1519 1521 1523 1524 1525 1527 1528 1529 1530 1532 1533 1534 1535 1536 1536 1537 1538 1539 1539 1539 1540 1540 1540 1541
1502 1503 1504 1505 1505 1506 1505 1506 1505 1506 1511 1524 1510 1514 1517 1507 1507 1508 1511 1515 1518 1520 1522 1524 1525 1525 1526 1527 1529 1530 1532 1533 1534 1534 1535 1536 1537 1537 1538 1538 1539 1539 1539 1540
1505 1503 1503 1505 1507 1505 1506 1514 1524 1526 1527 1520 1500 1507 1513 1504 1504 1507 1511 1514 1517 1519 1521 1523 1524 1524 1525 1526 1527 1529 1530 1531 1532 1533 1534 1534 1535 1536 1537 1537 1538 1538 1538 1539
1509 1511 1503 1504 1507 1509 1507 1511 1527 1535 1528 1515 1503 1510 1509 1502 1505 1509 1512 1515 1517 1519 1520 1522 1523 1524 1525 1525 1526 1527 1528 1529 1531 1531 1532 1533 1534 1535 1535 1536 1537 1537 1537 1538
1508 1508 1501 1502 1504 1506 1509 1509 1506 1516 1515 1518 1509 1508 1506 1503 1506 1509 1512 1515 1517 1518 1520 1521 1522 1523 1523 1524 1525 1526 1527 1528 1529 1530 1530 1532 1532 1533 1534 1534 1535 1535 1536 1536
1505 1510 1503 1503 1505 1505 1506 1507 1510 1516 1526 1528 1516 1511 1513 1509 1508 1509 1512 1514 1517 1518 1519 1520 1521 1522 1523 1523 1524 1525 1526 1526 1527 1528 1529 1530 1531 1531 1532 1533 1533 1534 1534 1534
1505 1510 1507 1505 1507 1508 1508 1508 1509 1512 1514 1526 1529 1522 1503 1505 1507 1509 1511 1514 1516 1518 1519 1520 1521 1521 1522 1522 1523 1524 1524 1525 1525 1526 1527 1528 1528 1529 1530 1531 1531 1532 1532 1532
1507 1510 1511 1504 1500 1501 1504 1506 1509 1520 1520 1515 1521 1521 1501 1504 1507 1509 1511 1514 1515 1517 1518 1519 1520 1520 1521 1521 1522 1522 1523 1523 1524 1524 1525 1526 1526 1527 1528 1528 1529 1530 1530 1531
1510 1513 1517 1514 1510 1506 1506 1505 1506 1510 1514 1517 1523 1520 1502 1504 1507 1509 1511 1513 1515 1516 1517 1518 1519 1520 1520 1520 1520 1521 1521 1522 1522 1522 1523 1523 1524 1524 1525 1526 1527 1528 1528 1528
1513 1513 1516 1520 1512 1507 1508 1506 1505 1511 1519 1518 1514 1512 1505 1505 1506 1508 1510 1512 1514 1515 1516 1517 1518 1519 1519 1519 1519 1519 1519 1520 1520 1520 1521 1521 1521 1522 1523 1524 1524 1525 1525 1526
1511 1514 1509 1504 1501 1502 1504 1505 1505 1508 1510 1515 1511 1508 1504 1503 1505 1507 1509 1510 1512 1514 1515 1516 1517 1517 1517 1518 1518 1518 1517 1518 1518 1518 1518 1519 1519 1520 1520 1521 1521 1522 1523 1523
1508 1510 1508 1506 1500 1499 1502 1501 1502 1503 1504 1505 1505 1505 1501 1502 1504 1505 1507 1509 1510 1512 1513 1514 1515 1515 1515 1516 1516 1516 1516 1516 1516 1516 1516 1516 1517 1517 1518 1518 1518 1519 1520 1520
1506 1509 1512 1511 1501 1500 1504 1497 1497 1499 1498 1501 1505 1503 1500 1501 1502 1504 1506 1507 1509 1510 1511 1512 1512 1513 1513 1513 1513 1514 1514 1513 1514 1514 1514 1514 1514 1514 1515 1515 1516 1516 1517 1517
1506 1508 1510 1511 1509 1516 1499 1489 1491 1494 1495 1495 1496 1497 1499 1501 1502 1504 1505 1506 1507 1508 1509 1510 1510 1510 1511 1511 1511 1512 1511 1511 1511 1511 1511 1511 1511 1512 1512 1512 1513 1513 1513 1514
1503 1507 1512 1513 1514 1505 1494 1490 1492 1495 1497 1495 1496 1497 1499 1500 1501 1503 1504 1505 1506 1507 1507 1508 1508 1508 1509 1509 1509 1509 1509 1509 1509 1509 1509 1509 1509 1509 1509 1509 1510 1510 1510 1511
1501 1504 1511 1512 1516 1513 1499 1493 1492 1495 1500 1495 1495 1497 1498 1499 1503 1503 1503 1503 1504 1505 1505 1505 1506 1506 1506 1506 1506 1506 1506 1506 1506 1506 1506 1506 1506 1506 1506 1506 1507 1507 1507 1507
1505 1506 1510 1512 1512 1502 1495 1493 1494 1504 1503 1496 1496 1497 1498 1499 1501 1502 1501 1502 1502 1503 1503 1503 1503 1504 1504 1504 1504 1504 1504 1503 1503 1503 1503 1503 1503 1503 1503 1503 1503 1503 1503 1504
1500 1504 1505 1506 1510 1506 1495 1494 1497 1499 1496 1496 1496 1497 1498 1499 1499 1499 1499 1500 1500 1500 1501 1501 1501 1501 1501 1501 1501 1501 1501 1501 1500 1500 1500 1500 1500 1499 1500 1500 1500 1500 1500 1500
1495 1497 1498 1499 1501 1496 1495 1495 1497 1497 1497 1496 1497 1497 1497 1497 1497 1498 1498 1498 1498 1499 1499 1499 1499 1499 1499 1499 1498 1498 1498 1498 1497 1497 1497 1497 1496 1496 1496 1496 1496 1496 1496 1496
1492 1493 1495 1496 1493 1494 1494 1495 1496 1496 1496 1496 1496 1496 1496 1496 1496 1497 1497 1497 1497 1497 1497 1496 1496 1496 1496 1496 1496 1495 1495 1494 1494 1494 1493 1493 1493 1492 1492 1492 1492 1492 1492 1492
1495 1495 1495 1494 1493 1494 1494 1494 1495 1495 1495 1495 1495 1495 1495 1495 1495 1495 1495 1495 1495 1495 1495 1494 1494 1493 1493 1493 1493 1492 1492 1491 1491 1490 1490 1489 1489 1489 1488 1487 1488 1488 1488 1488
1494 1494 1496 1495 1494 1493 1493 1493 1493 1493 1493 1494 1494 1494 1494 1493 1493 1493 1493 1493 1493 1493 1492 1492 1491 1491 1490 1490 1489 1489 1488 1488 1487 1486 1486 1485 1485 1484 1484 1483 1483 1483 1484 1483